STARLINK-1342, 45558

Orbit data source: Space-Track

STARLINK-1342, 45558 is a payload satellite owned by SpaceX/Seattle (US) in LEO that was launched on Wed, 22 Apr 2020 UTC via an FALCON 9 launch vehicle from the Air Force Eastern Test Range (AFETR). Payloads include a variety of satellites, spacecraft, and rockets equipped with specific instruments for various scientific and technological missions. These include communications satellites like Starlink; space stations such as the ISS; scientific satellites like the Hubble; Earth observation satellites from companies like Planet Labs, Umbra, and HawkEye 360; GPS; miniature CubeSats for education and research; and military/defense satellites.

Loading next visibility...
STARLINK-1342 details
Identifier
45558, 2020-025AD
Orbit
LEO
Last TLE update8 hours ago
Origin
Flag of USSpaceX/Seattle (US)
ManufacturerSpaceX/Seattle
MissionOperational Commercial Communications
Bus & MotorSTARLINK, Unknown motor
Mass260 kg wet, ~248 kg dry
Launch date (UTC)
2020-04-22 (5 years ago)
Launch vehicle
FALCON 9
Launch site
Air Force Eastern Test Range (AFETR)
Object type
Payload
Rocket body
Debris
Shape & HBRBox + 1 Pan, 8.86 m
Radar Cross Section13.562 m², Large (>1 m²)

Expand to show TLE details & history

TLE from 8 hours ago
0 STARLINK-1342
1 45558U 20025AD  24361.13161413  .00020066  00000-0  13607-2 0  9995
2 45558  53.0551 255.3831 0001674  93.6271 266.4909 15.06439481258665
Epoch: 2024-12-26T03:09Z
Definitive object data (Epoch: 2024-12-26T03:09:31.46Z)
Latitude-0.00008°
Longitude112.88655°
Altitude548.041 km
Speed7.589 km/s
True Right ascension17h 01m 31s
True Declination0° 00' 00"
Sunlit
Object was in daylight at TLE epoch
Visualization TLE readout
Latitude39.36047°
Longitude149.19603°
Altitude549.639 km
Speed7.593 km/s
Apparent Right ascension20h 59m 52s
Apparent Declination1° 50' 44"
Sunlit
Object is in daylight
Visualization observer readout
Local Sidereal Time10:42:23
Azimuth35.645° NE
Elevation-42.104°
Doppler factor1
Orbital elements
Apogee altitude548.521 km
Perigee altitude546.202 km
Semi-major axis6,925.498 km
Eccentricity0.0001674
Inclination53.0551°
RAAN255.3831°
Arg. of periapsis93.6271°
True anomaly266.47175°
Mean anomaly266.4909°
Eccentric anomaly266.48133°
Mean motion3.76588 °/min
BSTAR0.0013607
Orbital period95.6 mins
Loading maneuver chart data...
Loading historical data...
Loading historical data...
Loading historical data...
Loading historical data...
Loading historical data...
Loading historical data...
Loading historical data...

STARLINK-1342 Visibility forecast

Observer location: undefined°, undefined

Span
Click to sort rows by Start time (UTC) header in descending order
Start Az.
Max El. time (UTC)
Max El. Az.
Max El.
End time (UTC)
End Az.
7 mins2024-12-26 19:14:03.675Z196.704° SSW2024-12-26 19:17:03.675Z143.285° SSE30.258°2024-12-26 19:21:03.675Z65.852° ENE
5 mins2024-12-26 20:55:03.675Z281.481° WNW2024-12-26 20:57:03.675Z335.975° NNW29.805°2024-12-26 21:00:03.675Z32.936° NE
6 mins2024-12-27 01:56:03.675Z329.679° NNW2024-12-27 01:59:03.675Z47.173° ENE32.301°2024-12-27 02:02:03.675Z100.54° ESE
5 mins2024-12-27 03:36:03.675Z275.258° WNW2024-12-27 03:38:03.675Z230.081° WSW26.565°2024-12-27 03:41:03.675Z172.28° S
|